Lawton, OK

12:23 AM CDT on March 23, 2017 (GMT -0500)
Lawton-Fort Sill Regional

Weather History for KLAW - September, 2012

Change the Weather History Date:

Wednesday, September 12, 2012

  Actual Average Record
Temperature  
Mean Temperature 82 °F -  
Max Temperature 95 °F 90 °F 104 °F (2011)
Min Temperature 69 °F 64 °F 50 °F (1975)
Cooling Degree Days 17    
Growing Degree Days 32 (Base 50)    
Moisture  
Dew Point 56 °F    
Average Humidity 44    
Maximum Humidity 65    
Minimum Humidity 27    
Precipitation  
Precipitation 0.00 in - - ()
Sea Level Pressure  
Sea Level Pressure 29.95 in    
Wind  
Wind Speed 11 mph (SSE)    
Max Wind Speed 18 mph    
Max Gust Speed 25 mph    
Visibility 10 miles    
Events      
Averages and records for this station are not official NWS values.
T = Trace of Precipitation, MM = Missing Value Source: NWS Daily Summary

Daily Weather History Graph

Daily Weather History Graph

Search for Another Location

Airport or City:

Trip Planner

Search our weather history database for the weather conditions in past years. The results will help you decide how hot, cold, wet, or windy it might be!

Date:

Astronomy

Sep. 12, 2012 Rise Set
Actual Time 7:14 AM CDT 7:43 PM CDT
Civil Twilight 6:49 AM CDT 8:09 PM CDT
Nautical Twilight 6:19 AM CDT 8:38 PM CDT
Astronomical Twilight 5:49 AM CDT 9:09 PM CDT
Moon 3:40 AM CDT (9/12) 5:26 PM CDT (9/12)
Length of Visible Light 13h 19m
Length of Day
12h 28m
Waning Crescent, 13% of the Moon is Illuminated
Sep 12
Waning Crescent
Sep 15
New
Sep 22
First Quarter
Sep 29
Full
Oct 8
Last Quarter

Hourly Weather History & Observations

Time (CDT) Temp. Heat Index Dew Point Humidity Pressure Visibility Wind Dir Wind Speed Gust Speed Precip Events Conditions
12:53 AM 75.9 °F - 46.9 °F 36% 29.94 in 10.0 mi SSE 10.4 mph - N/A   Clear
1:53 AM 73.0 °F - 48.0 °F 41% 29.95 in 10.0 mi SSE 8.1 mph - N/A   Clear
2:53 AM 72.0 °F - 50.0 °F 46% 29.94 in 10.0 mi SSE 8.1 mph - N/A   Clear
3:53 AM 70.0 °F - 50.0 °F 49% 29.94 in 10.0 mi SE 5.8 mph - N/A   Clear
4:53 AM 69.1 °F - 51.1 °F 53% 29.94 in 10.0 mi SE 6.9 mph - N/A   Clear
5:53 AM 69.1 °F - 52.0 °F 54% 29.95 in 10.0 mi SSE 8.1 mph - N/A   Clear
6:53 AM 69.1 °F - 55.0 °F 61% 29.96 in 10.0 mi SSE 10.4 mph - N/A   Clear
7:53 AM 69.1 °F - 57.0 °F 65% 29.99 in 10.0 mi SE 10.4 mph - N/A   Clear
8:53 AM 73.9 °F - 61.0 °F 64% 29.99 in 10.0 mi South 13.8 mph 20.7 mph N/A   Clear
9:53 AM 78.1 °F - 63.0 °F 60% 30.00 in 10.0 mi South 18.4 mph 25.3 mph N/A   Clear
10:53 AM 82.9 °F 84.6 °F 64.9 °F 54% 30.00 in 10.0 mi South 13.8 mph 23.0 mph N/A   Clear
11:53 AM 87.1 °F 88.3 °F 64.0 °F 46% 29.99 in 10.0 mi South 17.3 mph 24.2 mph N/A   Clear
12:53 PM 91.0 °F 91.9 °F 63.0 °F 39% 29.96 in 10.0 mi South 18.4 mph 24.2 mph N/A   Clear
1:53 PM 91.9 °F 91.5 °F 60.1 °F 34% 29.95 in 10.0 mi South 12.7 mph 24.2 mph N/A   Clear
2:53 PM 93.0 °F 92.7 °F 60.1 °F 33% 29.92 in 10.0 mi South 15.0 mph 23.0 mph N/A   Partly Cloudy
3:53 PM 95.0 °F 93.4 °F 55.9 °F 27% 29.90 in 10.0 mi South 17.3 mph 24.2 mph N/A   Clear
4:53 PM 93.9 °F 92.6 °F 57.0 °F 29% 29.90 in 10.0 mi South 13.8 mph 24.2 mph N/A   Partly Cloudy
5:53 PM 93.0 °F 91.1 °F 55.0 °F 28% 29.90 in 10.0 mi SSE 17.3 mph 20.7 mph N/A   Clear
6:53 PM 91.0 °F 88.9 °F 55.0 °F 29% 29.91 in 10.0 mi SSE 12.7 mph - N/A   Clear
7:53 PM 87.1 °F 85.7 °F 55.9 °F 35% 29.92 in 10.0 mi SSE 9.2 mph - N/A   Clear
8:53 PM 84.9 °F 83.7 °F 55.9 °F 37% 29.94 in 10.0 mi SE 10.4 mph - N/A   Clear
9:53 PM 81.0 °F 81.0 °F 57.0 °F 44% 29.96 in 10.0 mi SE 8.1 mph - N/A   Clear
10:53 PM 80.1 °F 80.2 °F 55.9 °F 43% 29.97 in 10.0 mi SE 8.1 mph - N/A   Clear
11:53 PM 79.0 °F - 57.0 °F 47% 29.98 in 10.0 mi SE 9.2 mph - N/A   Clear